Home   Weather   Fairfax   Past weeks

Flag for USA Past Weather in Fairfax, Virginia, USA — Yesterday and Last 2 Weeks

Now
38 °F

Light rain. Fog.


Feels Like: 29 °F
Forecast: 39 / 48 °F
Wind: 15 mph from North

Location: Washington-Dulles International Airport

Current Time: Jan 23, 2017 at 8:09:07 pm

Latest Report: Jan 23, 2017 at 6:52 pm


Visibility: 1 mi

Pressure: 29.51 "Hg

Humidity: 93%

Dew Point: 36 °F

Location of FairfaxLocation

Past Weather in Fairfax — Graph

°F

Fairfax Temperature Yesterday

Maximum temperature yesterday: 50 °F (at 1:52 pm)
Minimum temperature yesterday: 46 °F (at 6:52 am)
Average temperature yesterday: 48 °F

High & Low Weather Summary for the Past Weeks

 TemperatureHumidityPressure
High70 °F (Jan 12, 3:52 pm)100% (Jan 18, 12:07 am)30.79 "Hg (Jan 18, 12:07 am)
Low8 °F (Jan 9, 1:52 am)31% (Jan 10, 8:52 pm)29.44 "Hg (Jan 23, 10:59 am)
Average42 °F75%30.16 "Hg
* Reported Jan 8 5:52 pm — Jan 23 5:52 pm, Fairfax, Weather by CustomWeather, © 2017

Note: Actual official high and low records may vary slightly from our data, if they occured in-between our weather recording intervals... More about our weather records

Advertising

Fairfax Weather History for the Previous 24 Hours

Scroll right to see more
 ConditionsComfort  
Time TempWeatherWind HumidityBarometerVisibility
5:52 pm
Mon, Jan 23
37 °FLight rain. Fog.12 mph96%29.51 "Hg1 mi
4:52 pm38 °FLight rain. Fog.12 mph93%29.50 "Hg1 mi
4:36 pm38 °FLight rain. Fog.13 mph93%29.51 "Hg1 mi
3:52 pm39 °FLight rain. Fog.15 mph89%29.50 "Hg1 mi
3:35 pm39 °FLight rain. Fog.12 mph93%29.50 "Hg1 mi
3:01 pm39 °FLight rain. Cloudy.10 mph93%29.49 "Hg10 mi
2:14 pm40 °FRain. Fog.15 mph89%29.48 "Hg1 mi
1:52 pm40 °FLight rain. Fog.10 mph93%29.49 "Hg2 mi
12:54 pm41 °FRain. Fog.17 mph86%29.44 "Hg1 mi
12:41 pm41 °FLight rain. Fog.17 mph89%29.45 "Hg5 mi
11:52 am42 °FLight rain. Fog.21 mph85%29.44 "Hg4 mi
11:13 am42 °FRain. Fog.24 mph85%29.44 "Hg2 mi
10:59 am43 °FRain. Fog.33 mph86%29.44 "Hg1 mi
9:52 am44 °FLight rain. Fog.21 mph85%29.46 "Hg3 mi
8:52 am45 °FLight rain. Fog.26 mph86%29.48 "Hg3 mi
7:52 am45 °FLight rain. Fog.21 mph90%29.49 "Hg3 mi
7:31 am45 °FLight rain. Fog.22 mph90%29.50 "Hg3 mi
6:52 am45 °FFog.24 mph90%29.49 "Hg3 mi
6:15 am45 °FDrizzle. Fog.23 mph90%29.49 "Hg3 mi
4:52 am46 °FDrizzle. Fog.20 mph89%29.51 "Hg5 mi
3:52 am47 °FDrizzle. Fog.17 mph90%29.54 "Hg6 mi
2:52 am48 °FLight rain. Fog.20 mph89%29.57 "Hg4 mi
1:52 am49 °FDrizzle. Fog.15 mph90%29.58 "Hg6 mi
12:52 am50 °FLight rain. Fog.13 mph89%29.59 "Hg5 mi
11:52 pm
Sun, Jan 22
50 °FLow clouds.13 mph93%29.61 "Hg7 mi
10:52 pm50 °FLight rain. Mostly cloudy.10 mph93%29.62 "Hg2 mi
9:52 pm50 °FFog.9 mph93%29.62 "Hg2 mi
9:21 pm50 °FFog.12 mph93%29.62 "Hg2 mi
8:52 pm50 °FFog.7 mph93%29.62 "Hg6 mi
Weather by CustomWeather, © 2017

See weather overviewHow to use our weather pages